Altus, OK

3:52 PM CDT on September 29, 2016 (GMT -0500)
Altus Municipal

Weather History for KAXS - February, 2013

Change the Weather History Date:

Saturday, February 9, 2013

  Actual Average (KLTS) Record (KLTS)
Temperature  
Mean Temperature 45 °F -  
Max Temperature 53 °F 53 °F 73 °F (2015)
Min Temperature 37 °F 30 °F 23 °F (2014)
Degree Days  
Heating Degree Days 20    
Moisture  
Dew Point 41 °F    
Average Humidity 81    
Maximum Humidity 100    
Minimum Humidity 65    
Precipitation  
Precipitation 0.02 in - - ()
Sea Level Pressure  
Sea Level Pressure 29.88 in    
Wind  
Wind Speed 16 mph (SE)    
Max Wind Speed 32 mph    
Max Gust Speed 37 mph    
Visibility 7 miles    
Events Rain    
Averages and records for this station are not official NWS values.
T = Trace of Precipitation, MM = Missing Value Source: NWS Daily Summary

Daily Weather History Graph

Daily Weather History Graph

Search for Another Location

Airport or City:

Trip Planner

Search our weather history database for the weather conditions in past years. The results will help you decide how hot, cold, wet, or windy it might be!

Date:

Astronomy

Feb. 09, 2013 Rise Set
Actual Time 7:28 AM CST 6:14 PM CST
Civil Twilight 7:02 AM CST 6:41 PM CST
Nautical Twilight 6:32 AM CST 7:10 PM CST
Astronomical Twilight 6:03 AM CST 7:40 PM CST
Moon 6:41 AM CST (2/9) 5:58 PM CST (2/9)
Length of Visible Light 11h 38m
Length of Day
10h 46m
Waning Crescent, 0% of the Moon is Illuminated
Feb 9
Waning Crescent
Feb 10
New
Feb 17
First Quarter
Feb 25
Full
Mar 4
Last Quarter

Hourly Weather History & Observations

Time (CST) Temp. Windchill Dew Point Humidity Pressure Visibility Wind Dir Wind Speed Gust Speed Precip Events Conditions
12:15 AM 37.4 °F 30.3 °F 28.4 °F 70% 30.11 in 10.0 mi ESE 10.4 mph - N/A   Clear
12:35 AM 39.2 °F 32.0 °F 28.4 °F 65% 30.09 in 10.0 mi ESE 11.5 mph - N/A   Clear
12:55 AM 37.4 °F 30.8 °F 28.4 °F 70% 30.09 in 10.0 mi ESE 9.2 mph - N/A   Clear
1:15 AM 39.2 °F 32.0 °F 28.4 °F 65% 30.08 in 10.0 mi ESE 11.5 mph - N/A   Clear
1:35 AM 39.2 °F 32.0 °F 28.4 °F 65% 30.08 in 10.0 mi ESE 11.5 mph - N/A   Clear
1:55 AM 39.2 °F 32.5 °F 30.2 °F 70% 30.07 in 10.0 mi ESE 10.4 mph - N/A   Clear
2:15 AM 39.2 °F 32.5 °F 30.2 °F 70% 30.06 in 10.0 mi ESE 10.4 mph - N/A   Clear
2:35 AM 39.2 °F 32.0 °F 30.2 °F 70% 30.05 in 10.0 mi ESE 11.5 mph - N/A   Clear
2:55 AM 41.0 °F 34.3 °F 30.2 °F 65% 30.05 in 10.0 mi ESE 11.5 mph - N/A   Clear
3:15 AM 41.0 °F 34.7 °F 30.2 °F 65% 30.05 in 10.0 mi ESE 10.4 mph - N/A   Clear
3:35 AM 41.0 °F 34.7 °F 32.0 °F 70% 30.05 in 10.0 mi ESE 10.4 mph - N/A   Clear
3:55 AM 41.0 °F 34.3 °F 32.0 °F 70% 30.04 in 10.0 mi ESE 11.5 mph - N/A   Clear
4:15 AM 42.8 °F 36.2 °F 32.0 °F 66% 30.03 in 10.0 mi SE 12.7 mph - N/A   Clear
4:35 AM 42.8 °F 35.8 °F 32.0 °F 66% 30.02 in 10.0 mi SE 13.8 mph - N/A   Clear
4:55 AM 41.0 °F 33.5 °F 32.0 °F 70% 30.01 in 10.0 mi SE 13.8 mph - N/A   Clear
5:15 AM 41.0 °F 33.1 °F 32.0 °F 70% 30.01 in 10.0 mi SE 15.0 mph - N/A   Clear
5:35 AM 41.0 °F 33.5 °F 32.0 °F 70% 30.00 in 10.0 mi SE 13.8 mph - N/A   Clear
5:55 AM 41.0 °F 33.5 °F 32.0 °F 70% 29.99 in 10.0 mi SE 13.8 mph - N/A   Clear
6:15 AM 42.8 °F 35.4 °F 32.0 °F 66% 29.99 in 10.0 mi SE 15.0 mph - N/A   Scattered Clouds
6:35 AM 42.8 °F 35.4 °F 32.0 °F 66% 29.98 in 10.0 mi SE 15.0 mph - N/A   Overcast
6:55 AM 44.6 °F 37.8 °F 33.8 °F 66% 29.98 in 10.0 mi SE 15.0 mph - N/A   Mostly Cloudy
7:15 AM 44.6 °F 38.4 °F 35.6 °F 71% 29.99 in 10.0 mi SE 12.7 mph - N/A   Overcast
7:35 AM 44.6 °F 37.8 °F 35.6 °F 71% 29.97 in 10.0 mi ESE 15.0 mph 21.9 mph N/A   Scattered Clouds
7:55 AM 44.6 °F 36.9 °F 35.6 °F 71% 29.97 in 10.0 mi SE 18.4 mph 23.0 mph N/A   Scattered Clouds
8:15 AM 44.6 °F 37.2 °F 37.4 °F 76% 29.97 in 10.0 mi SE 17.3 mph 25.3 mph N/A   Mostly Cloudy
8:35 AM 46.4 °F 39.0 °F 37.4 °F 71% 29.96 in 10.0 mi SE 19.6 mph 25.3 mph N/A   Overcast
8:55 AM 46.4 °F 38.7 °F 39.2 °F 76% 29.96 in 10.0 mi SE 20.7 mph - N/A   Overcast
9:15 AM 46.4 °F 39.0 °F 39.2 °F 76% 29.96 in 10.0 mi SE 19.6 mph 27.6 mph N/A   Overcast
9:35 AM 46.4 °F 39.2 °F 41.0 °F 81% 29.96 in 10.0 mi SE 18.4 mph 26.5 mph N/A   Overcast
9:55 AM 48.2 °F - 41.0 °F 76% 29.97 in 10.0 mi SE 21.9 mph 27.6 mph N/A   Overcast
10:15 AM 48.2 °F - 42.8 °F 82% 29.97 in 10.0 mi SE 21.9 mph 25.3 mph N/A   Overcast
10:35 AM 48.2 °F - 42.8 °F 82% 29.97 in 10.0 mi SE 18.4 mph 24.2 mph N/A   Overcast
10:55 AM 48.2 °F - 42.8 °F 82% 29.96 in 10.0 mi SE 20.7 mph 26.5 mph N/A   Overcast
11:15 AM 50.0 °F - 42.8 °F 76% 29.95 in 10.0 mi SE 19.6 mph - N/A   Overcast
11:35 AM 50.0 °F - 42.8 °F 76% 29.93 in 10.0 mi SE 19.6 mph 25.3 mph N/A   Overcast
11:55 AM 50.0 °F - 42.8 °F 76% 29.92 in 10.0 mi SE 19.6 mph 28.8 mph N/A   Overcast
12:15 PM 50.0 °F - 42.8 °F 76% 29.91 in 10.0 mi SE 20.7 mph 28.8 mph N/A   Overcast
12:35 PM 50.0 °F - 44.6 °F 82% 29.90 in 10.0 mi SE 18.4 mph - N/A   Overcast
12:55 PM 51.8 °F - 44.6 °F 76% 29.88 in 10.0 mi SSE 25.3 mph - N/A   Overcast
1:15 PM 51.8 °F - 44.6 °F 76% 29.86 in 10.0 mi SE 23.0 mph - N/A   Overcast
1:35 PM 50.0 °F - 44.6 °F 82% 29.84 in 5.0 mi SE 21.9 mph 26.5 mph N/A   Haze
1:55 PM 50.0 °F - 46.4 °F 87% 29.82 in 2.5 mi SE 23.0 mph 31.1 mph N/A   Overcast
2:15 PM 50.0 °F - 46.4 °F 87% 29.81 in 1.5 mi SE 21.9 mph 26.5 mph N/A Rain Light Rain
2:35 PM 48.2 °F - 46.4 °F 93% 29.79 in 1.5 mi SE 18.4 mph 26.5 mph N/A Rain Light Rain
2:55 PM 48.2 °F - 46.4 °F 93% 29.79 in 1.8 mi SE 20.7 mph 26.5 mph N/A   Overcast
3:15 PM 50.0 °F - 46.4 °F 87% 29.78 in 2.0 mi SE 25.3 mph 28.8 mph N/A   Overcast
3:35 PM 50.0 °F - 46.4 °F 87% 29.76 in 2.0 mi SSE 23.0 mph 28.8 mph N/A   Overcast
3:55 PM 48.2 °F - 46.4 °F 93% 29.75 in 1.5 mi SE 18.4 mph 26.5 mph N/A Rain Light Rain
4:15 PM 48.2 °F - 46.4 °F 93% 29.74 in 1.5 mi SE 18.4 mph 26.5 mph N/A   Overcast
4:35 PM 48.2 °F - 46.4 °F 93% 29.73 in 1.5 mi SE 20.7 mph - N/A   Overcast
5:15 PM 48.2 °F - 46.4 °F 93% 29.72 in 1.8 mi SE 21.9 mph 26.5 mph N/A   Overcast
5:35 PM 50.0 °F - 46.4 °F 87% 29.71 in 2.5 mi SE 24.2 mph 28.8 mph N/A   Overcast
5:55 PM 50.0 °F - 48.2 °F 94% 29.71 in 2.0 mi SE 21.9 mph 29.9 mph N/A   Overcast
6:15 PM 50.0 °F - 48.2 °F 94% 29.70 in 1.8 mi SE 24.2 mph 33.4 mph N/A   Overcast
6:35 PM 50.0 °F - 48.2 °F 94% 29.70 in 1.2 mi SE 24.2 mph 31.1 mph N/A   Overcast
7:15 PM 50.0 °F - 50.0 °F 100% 29.69 in 1.5 mi SSE 26.5 mph 33.4 mph N/A   Overcast
7:35 PM 50.0 °F - 50.0 °F 100% 29.68 in 1.2 mi SSE 21.9 mph 32.2 mph N/A   Overcast
7:55 PM 50.0 °F - 50.0 °F 100% 29.67 in 1.0 mi SE 27.6 mph 31.1 mph N/A   Overcast
8:15 PM 51.8 °F - 50.0 °F 94% 29.66 in 1.0 mi SE 28.8 mph 33.4 mph N/A   Overcast
8:35 PM 51.8 °F - 50.0 °F 94% 29.65 in 1.2 mi SE 25.3 mph 35.7 mph N/A   Overcast
8:55 PM 51.8 °F - 50.0 °F 94% 29.63 in 0.8 mi SSE 32.2 mph 36.8 mph N/A   Overcast
9:15 PM 51.8 °F - 50.0 °F 94% 29.63 in 0.8 mi SSE 26.5 mph 33.4 mph N/A   Overcast
9:35 PM 51.8 °F - 50.0 °F 94% 29.65 in 1.0 mi SSE 21.9 mph 31.1 mph N/A   Overcast
9:55 PM 51.8 °F - 51.8 °F 100% 29.66 in 1.2 mi SSE 20.7 mph 26.5 mph N/A   Overcast
10:15 PM 51.8 °F - 51.8 °F 100% 29.67 in 1.8 mi SSE 20.7 mph 25.3 mph N/A   Overcast
10:35 PM 53.6 °F - 51.8 °F 94% 29.69 in 3.0 mi South 18.4 mph 23.0 mph N/A   Overcast
10:55 PM 53.6 °F - 51.8 °F 94% 29.69 in 4.0 mi South 16.1 mph - N/A Rain Light Rain
11:15 PM 53.6 °F - 51.8 °F 94% 29.71 in 4.0 mi SSW 10.4 mph - 0.02 in Rain Light Rain
11:35 PM 53.6 °F - 51.8 °F 94% 29.71 in 5.0 mi SSW 5.8 mph - 0.02 in   Mostly Cloudy